GAOFEN-4

Last updated on Sun Apr 12 2026 00:02:35 GMT+0000 (Coordinated Universal Time)

1 41194U 15083A 26101.75556328 -.00000333 00000+0 00000+0 0 9995 2 41194 0.3350 82.5397 0002997 128.6694 6.4428 1.00275386 37869
UTC large
Height (km)
Speed (km/s)
/
Latitude / Longitude
Inclination (degrees)
Orbital Period (minutes)
Azimuth
Elevation
Range (km)
Doppler Factor

Next 0 passes for location: London (51.5072 / 0.1276)

Sorry there are no passes over London.
GAOFEN-4